Regional Weather Roundup
Issued by NWS

Home | Current Version | Previous Version | Graphics & Text | Print | Product List | Glossary On
Versions: 1 2 3 4 5 6 7 8 9 10 11 12 13 14 15 16 17 18 19 20 21 22 23 24 25 26 27 28 29 30 31 32 33 34 35 36 37 38 39 40 41 42 43 44 45 46 47 48 49 50
000
ASUS43 KLMK 221710
RWRKY
KENTUCKY REGIONAL WEATHER ROUNDUP
NATIONAL WEATHER SERVICE LOUISVILLE KY
100 PM EDT THU JUN 22 2017

NOTE "FAIR" INDICATES FEW OR NO CLOUDS BELOW 12,000 FEET
WITH NO SIGNIFICANT WEATHER AND/OR OBSTRUCTIONS TO VISIBILITY.

KYZ001>023-026-027-061>063-070>075-221800-
WESTERN AND SOUTH CENTRAL KENTUCKY

CITY           SKY/WX    TMP DP  RH WIND       PRES   REMARKS
PADUCAH        LGT RAIN  76  72  87 SE8       29.89F
HENDERSON      LGT RAIN  74  71  91 SE9       29.95F
OWENSBORO      HVY RAIN  72  70  93 SE20      29.96F VSB 1
HOPKINSVILLE   DRIZZLE   73  73 100 SE12G20   29.94F
BOWLING GREEN  RAIN      73  71  93 SE12      30.01F FOG
GLASGOW        RAIN      71  71 100 S3        30.03F
$$

KYZ024-025-028>034-038-045-046-053-221800-
NORTH CENTRAL KENTUCKY

CITY           SKY/WX    TMP DP  RH WIND       PRES   REMARKS
LOUISVILLE/SDF CLOUDY    80  69  69 S18G28    30.02S
LOUISVILLE/LOU CLOUDY    79  69  71 S16G26    30.03S
FORT KNOX      LGT RAIN  73  72  94 S9        30.01F
$$

KYZ035>037-039>044-047>052-055>060-089>105-221800-
NORTHEAST KENTUCKY

CITY           SKY/WX    TMP DP  RH WIND       PRES   REMARKS
LEXINGTON      LGT RAIN  76  66  71 S13       30.08S
COVINGTON      CLOUDY    81  71  71 S13       30.02F
FRANKFORT      CLOUDY    78  67  68 SW17G23   30.05S
$$

KYZ054-064>069-076>088-106>120-221800-
SOUTHEAST KENTUCKY

CITY           SKY/WX    TMP DP  RH WIND       PRES   REMARKS
JACKSON        CLOUDY    74  68  81 VRB3      30.13R
LONDON         RAIN      70  68  93 VRB5      30.12F FOG
SOMERSET       RAIN      70  70 100 SE3       30.10F
MIDDLESBORO    RAIN      72  70  94 CALM      30.14F
MONTICELLO     LGT RAIN  73  70  90 E9        30.09F
$$





USA.gov is the U.S. government's official web portal to all federal, state and local government web resources and services.